Regional Weather Roundup
Issued by NWS

Home | Current Version | Previous Version | Text Only | Print | Product List | Glossary Off
Versions: 1 2 3 4 5 6 7 8 9 10 11 12 13 14 15 16 17 18 19 20 21 22 23 24 25 26 27 28 29 30 31 32 33 34 35 36 37 38 39 40 41 42 43 44 45 46 47 48 49 50

000
ASUS43 KFSD 171610
RWRSD

WEATHER ROUNDUP FOR SOUTH DAKOTA
NATIONAL WEATHER SERVICE SIOUX FALLS SD
1000 AM CST SUN DEC 17 2017

NOTE: "FAIR" INDICATES FEW OR NO CLOUDS BELOW 12,000 FEET WITH NO
SIGNIFICANT WEATHER AND/OR OBSTRUCTIONS TO VISIBILITY.


SDZ001>005-009-010-012>017-171700-
NORTHWEST AND NORTH CENTRAL SOUTH DAKOTA

CITY           SKY/WX    TMP DP  RH WIND       PRES   REMARKS
BUFFALO          N/A     28  23  81 SE6       29.88F WCI  22
FAITH            N/A     28  25  88 S7        30.00F WCI  21
MOBRIDGE       CLOUDY    30  26  85 CALM      30.01F
$$

SDZ012>016-024>037-041>051-057-063-072>074-171700-
SOUTHWEST AND SOUTH CENTRAL SOUTH DAKOTA

CITY           SKY/WX    TMP DP  RH WIND       PRES   REMARKS
RAPID CTY ARPT CLOUDY    31  26  82 S9        29.99F WCI  23
PIERRE         CLOUDY    32  31  96 CALM      30.05S
CUSTER         CLOUDY    23  20  88 SW3       29.91F
ELLSWORTH AFB  CLOUDY    30  28  92 S7        29.98F WCI  24
PHILIP         CLOUDY    32  28  85 CALM      30.05S
PINE RIDGE     CLOUDY    31  29  92 W3        30.02S
SPEARFISH      FAIR      27  25  93 SE7       29.93F WCI  19
WINNER         CLOUDY    35  31  85 W3        30.05F
$$

SDZ004>011-016>023-039-040-171700-
NORTHEAST SOUTH DAKOTA

CITY           SKY/WX    TMP DP  RH WIND       PRES   REMARKS
ABERDEEN       CLOUDY    30  29  96 W3        30.06R
WATERTOWN      CLOUDY    30  30 100 CALM      30.03R
BROOKINGS      CLOUDY    27  27 100 CALM      30.05R
SISSETON         N/A     33  31  92 S7        30.04S WCI  27
$$

SDZ017-020-022-023-036>040-048>070-171700-
SOUTHEAST SOUTH DAKOTA

CITY           SKY/WX    TMP DP  RH WIND       PRES   REMARKS
SIOUX FALLS    CLOUDY    27  27 100 NE5       30.04F FOG     WCI  22
HURON          CLOUDY    31  30  96 MISG      30.06S
CHAMBERLAIN    CLOUDY    33  33 100 CALM      30.07R
MITCHELL       CLOUDY    32  31  96 NW5       30.07S FOG     WCI  27
YANKTON        MOSUNNY   26  25  96 NW7       30.07R FOG     WCI  18
$$

ABBREVIATIONS USED IN REMARKS
   TC - TEMPERATURE IN CELSIUS
  WCI - WIND CHILL INDEX
   HX - HEAT INDEX
  VSB - VISIBILITY





USA.gov is the U.S. government's official web portal to all federal, state and local government web resources and services.